• In Hungary
  • List of Countries
  • For 7 days
  • Water Temperature
  • Satellite Maps
  • Weather Map
  • News
  • Weather Widgets
  • user-avatar
    Login

    Hourly Weather Chhattisgarh

    Today, 25 February, Sunday

    Time Temperature Precipitation Wind Pressure Humidity
    00:00 +27°C° 0 mm 1 mps 736 mmHg 24%
    01:00 +26°C° 0 mm 1 mps 736 mmHg 25%
    02:00 +26°C° 0 mm 1 mps 736 mmHg 26%
    03:00 +25°C° 0 mm 1 mps 736 mmHg 27%
    04:00 +25°C° 0 mm 1 mps 736 mmHg 28%
    05:00 +24°C° 0 mm 1 mps 736 mmHg 29%
    06:00 +26°C° 0 mm 1 mps 736 mmHg 27%
    07:00 +27°C° 0 mm 1 mps 737 mmHg 25%
    08:00 +28°C° 0 mm 1 mps 737 mmHg 23%
    09:00 +31°C° 0 mm 2 mps 737 mmHg 21%
    10:00 +34°C° 0 mm 2 mps 737 mmHg 18%
    11:00 +36°C° 0 mm 2 mps 737 mmHg 16%
    12:00 +37°C° 0 mm 2 mps 736 mmHg 16%
    13:00 +38°C° 0 mm 2 mps 735 mmHg 15%
    14:00 +39°C° 0 mm 2 mps 735 mmHg 15%
    15:00 +37°C° 0 mm 1 mps 734 mmHg 16%
    16:00 +37°C° 0 mm 1 mps 734 mmHg 17%
    17:00 +36°C° 0 mm 1 mps 734 mmHg 18%
    18:00 +34°C° 0 mm 1 mps 734 mmHg 19%
    19:00 +33°C° 0 mm 1 mps 734 mmHg 21%
    20:00 +31°C° 0 mm 1 mps 735 mmHg 22%
    21:00 +31°C° 0 mm 1 mps 735 mmHg 23%
    22:00 +30°C° 0 mm 1 mps 735 mmHg 24%
    23:00 +30°C° 0 mm 1 mps 735 mmHg 24%

    Tomorrow, 26 February, Monday

    Time Temperature Precipitation Wind Pressure Humidity
    00:00 +29°C° 0 mm 1 mps 735 mmHg 26%
    01:00 +29°C° 0 mm 1 mps 734 mmHg 27%
    02:00 +28°C° 0 mm 2 mps 734 mmHg 29%
    03:00 +27°C° 0 mm 1 mps 734 mmHg 30%
    04:00 +27°C° 0 mm 1 mps 734 mmHg 31%
    05:00 +26°C° 0 mm 1 mps 734 mmHg 32%
    06:00 +27°C° 0 mm 1 mps 735 mmHg 30%
    07:00 +29°C° 0 mm 1 mps 735 mmHg 29%
    08:00 +30°C° 0 mm 1 mps 736 mmHg 27%
    09:00 +32°C° 0 mm 2 mps 736 mmHg 24%
    10:00 +35°C° 0 mm 2 mps 736 mmHg 22%
    11:00 +36°C° 0 mm 2 mps 736 mmHg 20%
    12:00 +37°C° 0 mm 3 mps 735 mmHg 18%
    13:00 +38°C° 0 mm 3 mps 734 mmHg 17%
    14:00 +39°C° 0 mm 3 mps 733 mmHg 15%
    15:00 +38°C° 0 mm 2 mps 733 mmHg 16%
    16:00 +38°C° 0 mm 2 mps 733 mmHg 16%
    17:00 +36°C° 0 mm 1 mps 733 mmHg 17%
    18:00 +35°C° 0 mm 2 mps 733 mmHg 19%
    19:00 +32°C° 0 mm 2 mps 734 mmHg 21%
    20:00 +31°C° 0 mm 2 mps 734 mmHg 23%
    21:00 +30°C° 0 mm 2 mps 734 mmHg 24%
    22:00 +29°C° 0 mm 2 mps 734 mmHg 26%
    23:00 +28°C° 0 mm 2 mps 735 mmHg 28%

    Day after tomorrow, 27 February, Tuesday

    Time Temperature Precipitation Wind Pressure Humidity
    00:00 +27°C° 0 mm 2 mps 734 mmHg 29%
    01:00 +27°C° 0 mm 2 mps 734 mmHg 30%
    02:00 +26°C° 0 mm 2 mps 734 mmHg 32%
    03:00 +25°C° 0 mm 2 mps 734 mmHg 33%
    04:00 +25°C° 0 mm 2 mps 734 mmHg 35%
    05:00 +24°C° 0 mm 2 mps 734 mmHg 36%
    06:00 +25°C° 0 mm 3 mps 735 mmHg 34%
    07:00 +27°C° 0 mm 3 mps 736 mmHg 31%
    08:00 +28°C° 0 mm 3 mps 737 mmHg 29%
    09:00 +30°C° 0 mm 3 mps 736 mmHg 25%
    10:00 +34°C° 0 mm 3 mps 736 mmHg 21%
    11:00 +36°C° 0 mm 3 mps 736 mmHg 18%
    12:00 +37°C° 0 mm 3 mps 735 mmHg 16%
    13:00 +37°C° 0 mm 3 mps 734 mmHg 14%
    14:00 +38°C° 0 mm 2 mps 733 mmHg 12%
    15:00 +37°C° 0 mm 2 mps 733 mmHg 12%
    16:00 +37°C° 0 mm 2 mps 732 mmHg 13%
    17:00 +36°C° 0 mm 2 mps 732 mmHg 14%
    18:00 +34°C° 0 mm 2 mps 733 mmHg 15%
    19:00 +31°C° 0 mm 1 mps 733 mmHg 16%
    20:00 +30°C° 0 mm 1 mps 734 mmHg 18%
    21:00 +29°C° 0 mm 1 mps 734 mmHg 19%
    22:00 +28°C° 0 mm 1 mps 734 mmHg 19%
    23:00 +27°C° 0 mm 2 mps 734 mmHg 20%

    28 February, Wednesday

    Time Temperature Precipitation Wind Pressure Humidity
    00:00 +27°C° 0 mm 2 mps 733 mmHg 21%
    01:00 +26°C° 0 mm 2 mps 733 mmHg 22%
    02:00 +25°C° 0 mm 2 mps 733 mmHg 23%
    03:00 +24°C° 0 mm 2 mps 733 mmHg 24%
    04:00 +24°C° 0 mm 2 mps 733 mmHg 25%
    05:00 +23°C° 0 mm 2 mps 733 mmHg 26%
    06:00 +25°C° 0 mm 2 mps 734 mmHg 24%
    07:00 +26°C° 0 mm 1 mps 735 mmHg 22%
    08:00 +28°C° 0 mm 1 mps 736 mmHg 20%
    09:00 +31°C° 0 mm 1 mps 735 mmHg 18%
    10:00 +33°C° 0 mm 1 mps 735 mmHg 15%
    11:00 +36°C° 0 mm 1 mps 735 mmHg 12%
    12:00 +37°C° 0 mm 1 mps 734 mmHg 11%
    13:00 +38°C° 0 mm 2 mps 733 mmHg 10%
    14:00 +39°C° 0 mm 2 mps 732 mmHg 10%
    15:00 +38°C° 0 mm 2 mps 732 mmHg 10%
    16:00 +37°C° 0 mm 2 mps 732 mmHg 11%
    17:00 +37°C° 0 mm 2 mps 732 mmHg 12%
    18:00 +34°C° 0 mm 1 mps 732 mmHg 13%
    19:00 +32°C° 0 mm 1 mps 733 mmHg 14%
    20:00 +30°C° 0 mm 1 mps 733 mmHg 16%
    21:00 +30°C° 0 mm 1 mps 733 mmHg 17%
    22:00 +29°C° 0 mm 2 mps 733 mmHg 17%
    23:00 +28°C° 0 mm 2 mps 733 mmHg 18%

    1 March, Thursday

    Time Temperature Precipitation Wind Pressure Humidity
    00:00 +27°C° 0 mm 2 mps 733 mmHg 21%
    01:00 +27°C° 0 mm 2 mps 732 mmHg 23%
    02:00 +26°C° 0 mm 2 mps 732 mmHg 25%
    03:00 +25°C° 0 mm 2 mps 732 mmHg 27%
    04:00 +25°C° 0 mm 2 mps 733 mmHg 28%
    05:00 +24°C° 0 mm 1 mps 733 mmHg 30%
    06:00 +26°C° 0 mm 1 mps 734 mmHg 28%
    07:00 +27°C° 0 mm 1 mps 734 mmHg 26%
    08:00 +29°C° 0 mm 1 mps 735 mmHg 24%
    09:00 +31°C° 0 mm 1 mps 735 mmHg 21%
    10:00 +34°C° 0 mm 2 mps 735 mmHg 19%
    11:00 +37°C° 0 mm 2 mps 735 mmHg 16%
    12:00 +37°C° 0 mm 2 mps 734 mmHg 15%
    13:00 +38°C° 0 mm 2 mps 733 mmHg 14%
    14:00 +39°C° 0 mm 2 mps 732 mmHg 12%
    15:00 +38°C° 0 mm 2 mps 732 mmHg 13%
    16:00 +38°C° 0 mm 2 mps 731 mmHg 14%
    17:00 +37°C° 0 mm 2 mps 731 mmHg 15%
    18:00 +35°C° 0 mm 2 mps 732 mmHg 17%
    19:00 +33°C° 0 mm 1 mps 732 mmHg 18%
    20:00 +31°C° 0 mm 1 mps 733 mmHg 20%
    21:00 +30°C° 0 mm 1 mps 733 mmHg 20%
    22:00 +30°C° 0 mm 2 mps 733 mmHg 21%
    23:00 +29°C° 0 mm 2 mps 733 mmHg 21%

    2 March, Friday

    Time Temperature Precipitation Wind Pressure Humidity
    00:00 +28°C° 0 mm 2 mps 732 mmHg 22%
    01:00 +28°C° 0 mm 2 mps 732 mmHg 23%
    02:00 +27°C° 0 mm 2 mps 732 mmHg 24%
    03:00 +26°C° 0 mm 2 mps 732 mmHg 24%
    04:00 +25°C° 0 mm 1 mps 732 mmHg 25%
    05:00 +25°C° 0 mm 1 mps 732 mmHg 26%
    06:00 +26°C° 0 mm 1 mps 733 mmHg 24%
    07:00 +28°C° 0 mm 1 mps 734 mmHg 22%
    08:00 +30°C° 0 mm 1 mps 734 mmHg 20%
    09:00 +32°C° 0 mm 1 mps 734 mmHg 18%
    10:00 +35°C° 0 mm 1 mps 734 mmHg 15%
    11:00 +39°C° 0 mm 1 mps 734 mmHg 13%
    12:00 +39°C° 0 mm 2 mps 733 mmHg 12%
    13:00 +40°C° 0 mm 2 mps 732 mmHg 11%
    14:00 +40°C° 0 mm 2 mps 731 mmHg 10%
    15:00 +40°C° 0 mm 2 mps 731 mmHg 11%
    16:00 +39°C° 0 mm 2 mps 731 mmHg 11%
    17:00 +38°C° 0 mm 2 mps 731 mmHg 12%
    18:00 +37°C° 0 mm 2 mps 731 mmHg 13%
    19:00 +34°C° 0 mm 1 mps 731 mmHg 15%
    20:00 +32°C° 0 mm 1 mps 732 mmHg 16%
    21:00 +32°C° 0 mm 1 mps 732 mmHg 16%
    22:00 +31°C° 0 mm 1 mps 732 mmHg 17%
    23:00 +30°C° 0 mm 1 mps 732 mmHg 18%
    Show more